This is the latest recevied weather packets stored in our database for station/object N3RPH-13. If no packets are shown the sender has not sent any weather packets the latest 10 day(s).
| Time | Temp. | Humidity | Pressure | Rain* | Wind** | Luminosity | Snow |
|---|---|---|---|---|---|---|---|
| 1787433343 | 26.11° C | 60% | 1012 hPa | 0 mm | - | 201 W/m² | - |
| 1787433043 | 26.11° C | 56% | 1012 hPa | 0 mm | - | 236 W/m² | - |
| 1787432743 | 26.11° C | 56% | 1012.1 hPa | 0 mm | - | 321 W/m² | - |
| 1787432444 | 26.11° C | 55% | 1012.1 hPa | 0 mm | - | 297 W/m² | - |
| 1787432144 | 26.11° C | 54% | 1012.2 hPa | 0 mm | - | 306 W/m² | - |
| 1787431844 | 25.56° C | 53% | 1012.2 hPa | 0 mm | - | 360 W/m² | - |
| 1787431544 | 26.11° C | 53% | 1012.3 hPa | 0 mm | - | 270 W/m² | - |
| 1787431244 | 25.56° C | 54% | 1012.3 hPa | 0 mm | - | 493 W/m² | - |
| 1787430943 | 25.56° C | 55% | 1012.6 hPa | 0 mm | - | 396 W/m² | - |
| 1787430643 | 25.56° C | 55% | 1012.6 hPa | 0 mm | - | 317 W/m² | - |
| 1787430343 | 25.56° C | 56% | 1012.8 hPa | 0 mm | - | 252 W/m² | - |
| 1787430043 | 25.56° C | 57% | 1012.8 hPa | 0 mm | - | 205 W/m² | - |
| 1787429743 | 25.56° C | 57% | 1012.9 hPa | 0 mm | - | 186 W/m² | - |
| 1787429443 | 25.56° C | 58% | 1013.1 hPa | 0 mm | - | 177 W/m² | - |
| 1787429143 | 25.56° C | 58% | 1013.1 hPa | 0 mm | - | 184 W/m² | - |
| 1787428843 | 25.56° C | 58% | 1013.1 hPa | 0 mm | - | 199 W/m² | - |
| 1787428543 | 25.56° C | 57% | 1013.2 hPa | 0 mm | - | 179 W/m² | - |
| 1787428243 | 25.56° C | 58% | 1013.1 hPa | 0 mm | - | 176 W/m² | - |
| 1787427943 | 25.56° C | 57% | 1013 hPa | 0 mm | - | 193 W/m² | - |
| 1787427643 | 25.56° C | 58% | 1013.1 hPa | 0 mm | - | 211 W/m² | - |
| 1787427343 | 25.56° C | 59% | 1013.1 hPa | 0 mm | - | 297 W/m² | - |
| 1787427043 | 25° C | 59% | 1013.2 hPa | 0 mm | - | 343 W/m² | - |
| 1787426743 | 25.56° C | 60% | 1013.3 hPa | 0 mm | - | 265 W/m² | - |
| 1787426443 | 25° C | 61% | 1013.4 hPa | 0 mm | - | 305 W/m² | - |
| 1787426143 | 24.44° C | 61% | 1013.3 hPa | 0 mm | - | 340 W/m² | - |
* Rain latest hour (hover to see other rain measurements)
** Current wind speed in m/s (hover to see current wind gust speed)